STARLINK-2224, 48573

Orbit data source: Space-Track

STARLINK-2224, 48573 is a payload satellite owned by SpaceX/Seattle (US) in LEO that was launched on Sat, 15 May 2021 UTC via an FALCON 9 launch vehicle from the Air Force Eastern Test Range (AFETR). Payload-class satellites include a variety of spacecraft equipped with specific instruments for various scientific and technological missions. These include communications satellites like Starlink; space stations such as the ISS; scientific satellites like the Hubble; Earth observation satellites from companies like Planet Labs, Umbra, and HawkEye 360; GPS; miniature CubeSats for education and research; and military/defense satellites.

Loading next visibility...
Identifier
48573, 2021-041W
Orbit
LEO
Country
Flag of USUS
Related business
Manufacturer
SpaceX/Seattle
Mission
Operational Commercial Communications
Bus & Motor
STARLINK, Unknown motor
Mass
260 kg wet, ~248 kg dry
Launch date (UTC)
2021-05-15 (5 years ago)
Launch vehicle
FALCON 9
Launch site
Air Force Eastern Test Range (AFETR)
Object type
Payload
Rocket body
Debris
Shape & HBR
Box + 1 Pan, 10.1 m
Radar Cross Section
13.562 m², Large (>1 m²)

Expand to show TLE details & history
Last TLE update: 18 hours ago

TLE from 18 hours ago
0 STARLINK-2224
1 48573U 21041W   25348.87629448  .00001960  00000-0  15051-3 0  9996
2 48573  53.0546 152.3598 0001395  81.3953 278.7194 15.06386929252413
Epoch: 2025-12-14T21:01Z
TLE epoch observation values (Epoch: 2025-12-14T21:01:51.843Z)
Latitude
-0°
Longitude
113.11086°
Altitude
547.984 km
Speed
7.589 km/s
True Right ascension
10h 09m 26s
True Declination
0° 00' 00"
Sunlit
Object was in daylight at epoch
Visualization orbit readout
Latitude
Unknown
Longitude
Unknown
Altitude
Unknown
Speed
Unknown
Apparent Right ascension
Unknown
Apparent Declination
Unknown
Sunlit
N/A
Visualization observer readout
Local Sidereal Time
13:18:51
Azimuth
Unknown
Elevation
Unknown
Doppler factor
Unknown
Orbital elements
Apogee altitude
548.488 km
Perigee altitude
546.556 km
Semi-major axis
6,925.659 km
Eccentricity
0.00014
Inclination
53.0546°
RAAN
152.3598°
Arg. of periapsis
81.3953°
True anomaly
278.7036°
Mean anomaly
278.7194°
Eccentric anomaly
278.7115°
Mean motion
3.76575 °/min
Orbital period
95.6 mins
BSTAR
0.00015051
Loading maneuver chart data...
Computing Atmospheric mass density...
Loading historical data...
Loading historical data...
Loading historical data...
Loading historical data...
Loading historical data...
Loading historical data...
Loading historical data...

Documentation

Showing up to 5 results
|